﻿測定場所 (Monitoring sites),日付 (Measurement date),時間 (Measurement time),線量率 最大値 (max) μGy/h,線量率 最小値 (min) μGy/h,線量率 平均値 (average) μGy/h,
足立 (Adachi),2023-09-10,23:01～24:00,0.0326,0.0279,0.0305,
足立 (Adachi),2023-09-10,22:01～23:00,0.0324,0.0281,0.0301,
足立 (Adachi),2023-09-10,21:01～22:00,0.0325,0.0275,0.0305,
足立 (Adachi),2023-09-10,20:01～21:00,0.0323,0.0276,0.0302,
足立 (Adachi),2023-09-10,19:01～20:00,0.0329,0.0287,0.0304,
足立 (Adachi),2023-09-10,18:01～19:00,0.0319,0.0275,0.0302,
足立 (Adachi),2023-09-10,17:01～18:00,0.0315,0.0283,0.0302,
足立 (Adachi),2023-09-10,16:01～17:00,0.0322,0.0283,0.0303,
足立 (Adachi),2023-09-10,15:01～16:00,0.0328,0.0282,0.0302,
足立 (Adachi),2023-09-10,14:01～15:00,0.0316,0.0276,0.0299,
足立 (Adachi),2023-09-10,13:01～14:00,0.0333,0.0283,0.0304,
足立 (Adachi),2023-09-10,12:01～13:00,0.0326,0.0283,0.0306,
足立 (Adachi),2023-09-10,11:01～12:00,0.0327,0.0286,0.0305,
足立 (Adachi),2023-09-10,10:01～11:00,0.0342,0.0277,0.0310,
足立 (Adachi),2023-09-10,09:01～10:00,0.0336,0.0289,0.0311,
足立 (Adachi),2023-09-10,08:01～09:00,0.0346,0.0288,0.0309,
足立 (Adachi),2023-09-10,07:01～08:00,0.0330,0.0287,0.0305,
足立 (Adachi),2023-09-10,06:01～07:00,0.0324,0.0283,0.0301,
足立 (Adachi),2023-09-10,05:01～06:00,0.0328,0.0281,0.0304,
足立 (Adachi),2023-09-10,04:01～05:00,0.0330,0.0283,0.0306,
足立 (Adachi),2023-09-10,03:01～04:00,0.0324,0.0275,0.0301,
足立 (Adachi),2023-09-10,02:01～03:00,0.0322,0.0285,0.0305,
足立 (Adachi),2023-09-10,01:01～02:00,0.0317,0.0282,0.0303,
足立 (Adachi),2023-09-10,00:01～01:00,0.0320,0.0285,0.0302,
足立 (Adachi),2023-09-09,23:01～24:00,0.0331,0.0283,0.0309,
足立 (Adachi),2023-09-09,22:01～23:00,0.0335,0.0290,0.0308,
足立 (Adachi),2023-09-09,21:01～22:00,0.0328,0.0289,0.0306,
足立 (Adachi),2023-09-09,20:01～21:00,0.0325,0.0278,0.0306,
足立 (Adachi),2023-09-09,19:01～20:00,0.0332,0.0290,0.0313,
足立 (Adachi),2023-09-09,18:01～19:00,0.0329,0.0284,0.0310,
足立 (Adachi),2023-09-09,17:01～18:00,0.0335,0.0297,0.0313,
足立 (Adachi),2023-09-09,16:01～17:00,0.0336,0.0281,0.0309,
足立 (Adachi),2023-09-09,15:01～16:00,0.0331,0.0287,0.0307,
足立 (Adachi),2023-09-09,14:01～15:00,0.0336,0.0286,0.0309,
足立 (Adachi),2023-09-09,13:01～14:00,0.0328,0.0281,0.0310,
足立 (Adachi),2023-09-09,12:01～13:00,0.0335,0.0285,0.0310,
足立 (Adachi),2023-09-09,11:01～12:00,0.0337,0.0301,0.0318,
足立 (Adachi),2023-09-09,10:01～11:00,0.0368,0.0304,0.0337,
足立 (Adachi),2023-09-09,09:01～10:00,0.0354,0.0288,0.0324,
足立 (Adachi),2023-09-09,08:01～09:00,0.0321,0.0273,0.0301,
足立 (Adachi),2023-09-09,07:01～08:00,0.0327,0.0288,0.0303,
足立 (Adachi),2023-09-09,06:01～07:00,0.0322,0.0284,0.0305,
足立 (Adachi),2023-09-09,05:01～06:00,0.0333,0.0280,0.0309,
足立 (Adachi),2023-09-09,04:01～05:00,0.0334,0.0295,0.0310,
足立 (Adachi),2023-09-09,03:01～04:00,0.0352,0.0294,0.0322,
足立 (Adachi),2023-09-09,02:01～03:00,0.0353,0.0291,0.0323,
足立 (Adachi),2023-09-09,01:01～02:00,0.0337,0.0278,0.0310,
足立 (Adachi),2023-09-09,00:01～01:00,0.0340,0.0283,0.0319,
足立 (Adachi),2023-09-08,23:01～24:00,0.0341,0.0289,0.0312,
足立 (Adachi),2023-09-08,22:01～23:00,0.0334,0.0289,0.0311,
足立 (Adachi),2023-09-08,21:01～22:00,0.0331,0.0290,0.0311,
足立 (Adachi),2023-09-08,20:01～21:00,0.0339,0.0293,0.0318,
足立 (Adachi),2023-09-08,19:01～20:00,0.0355,0.0315,0.0333,
足立 (Adachi),2023-09-08,18:01～19:00,0.0363,0.0309,0.0334,
足立 (Adachi),2023-09-08,17:01～18:00,0.0387,0.0327,0.0356,
足立 (Adachi),2023-09-08,16:01～17:00,0.0427,0.0364,0.0402,
足立 (Adachi),2023-09-08,15:01～16:00,0.0429,0.0348,0.0388,
足立 (Adachi),2023-09-08,14:01～15:00,0.0409,0.0332,0.0365,
足立 (Adachi),2023-09-08,13:01～14:00,0.0353,0.0316,0.0332,
足立 (Adachi),2023-09-08,12:01～13:00,0.0397,0.0313,0.0349,
足立 (Adachi),2023-09-08,11:01～12:00,0.0458,0.0382,0.0418,
足立 (Adachi),2023-09-08,10:01～11:00,0.0509,0.0412,0.0447,
足立 (Adachi),2023-09-08,09:01～10:00,0.0531,0.0470,0.0499,
足立 (Adachi),2023-09-08,08:01～09:00,0.0523,0.0381,0.0439,
足立 (Adachi),2023-09-08,07:01～08:00,0.0438,0.0381,0.0410,
足立 (Adachi),2023-09-08,06:01～07:00,0.0433,0.0383,0.0408,
足立 (Adachi),2023-09-08,05:01～06:00,0.0417,0.0322,0.0364,
足立 (Adachi),2023-09-08,04:01～05:00,0.0361,0.0317,0.0336,
足立 (Adachi),2023-09-08,03:01～04:00,0.0367,0.0304,0.0327,
足立 (Adachi),2023-09-08,02:01～03:00,0.0362,0.0308,0.0331,
足立 (Adachi),2023-09-08,01:01～02:00,0.0351,0.0308,0.0331,
足立 (Adachi),2023-09-08,00:01～01:00,0.0352,0.0304,0.0324,
足立 (Adachi),2023-09-07,23:01～24:00,0.0356,0.0298,0.0324,
足立 (Adachi),2023-09-07,22:01～23:00,0.0339,0.0299,0.0321,
足立 (Adachi),2023-09-07,21:01～22:00,0.0344,0.0299,0.0322,
足立 (Adachi),2023-09-07,20:01～21:00,0.0346,0.0292,0.0318,
足立 (Adachi),2023-09-07,19:01～20:00,0.0355,0.0298,0.0321,
足立 (Adachi),2023-09-07,18:01～19:00,0.0344,0.0296,0.0321,
足立 (Adachi),2023-09-07,17:01～18:00,0.0341,0.0301,0.0322,
足立 (Adachi),2023-09-07,16:01～17:00,0.0343,0.0290,0.0322,
足立 (Adachi),2023-09-07,15:01～16:00,0.0339,0.0300,0.0321,
足立 (Adachi),2023-09-07,14:01～15:00,0.0340,0.0301,0.0319,
足立 (Adachi),2023-09-07,13:01～14:00,0.0346,0.0296,0.0319,
足立 (Adachi),2023-09-07,12:01～13:00,0.0340,0.0292,0.0319,
足立 (Adachi),2023-09-07,11:01～12:00,0.0336,0.0302,0.0320,
足立 (Adachi),2023-09-07,10:01～11:00,0.0349,0.0297,0.0319,
足立 (Adachi),2023-09-07,09:01～10:00,0.0343,0.0295,0.0317,
足立 (Adachi),2023-09-07,08:01～09:00,0.0340,0.0297,0.0317,
足立 (Adachi),2023-09-07,07:01～08:00,0.0343,0.0285,0.0315,
足立 (Adachi),2023-09-07,06:01～07:00,0.0337,0.0287,0.0313,
足立 (Adachi),2023-09-07,05:01～06:00,0.0346,0.0290,0.0316,
足立 (Adachi),2023-09-07,04:01～05:00,0.0339,0.0289,0.0315,
足立 (Adachi),2023-09-07,03:01～04:00,0.0350,0.0297,0.0318,
足立 (Adachi),2023-09-07,02:01～03:00,0.0339,0.0291,0.0317,
足立 (Adachi),2023-09-07,01:01～02:00,0.0337,0.0294,0.0315,
足立 (Adachi),2023-09-07,00:01～01:00,0.0342,0.0291,0.0314,
足立 (Adachi),2023-09-06,23:01～24:00,0.0348,0.0293,0.0315,
足立 (Adachi),2023-09-06,22:01～23:00,0.0334,0.0295,0.0313,
足立 (Adachi),2023-09-06,21:01～22:00,0.0339,0.0291,0.0315,
足立 (Adachi),2023-09-06,20:01～21:00,0.0353,0.0307,0.0326,
足立 (Adachi),2023-09-06,19:01～20:00,0.0353,0.0294,0.0329,
足立 (Adachi),2023-09-06,18:01～19:00,0.0360,0.0314,0.0337,
足立 (Adachi),2023-09-06,17:01～18:00,0.0343,0.0308,0.0326,
足立 (Adachi),2023-09-06,16:01～17:00,0.0350,0.0293,0.0329,
足立 (Adachi),2023-09-06,15:01～16:00,0.0341,0.0287,0.0313,
足立 (Adachi),2023-09-06,14:01～15:00,0.0327,0.0281,0.0305,
足立 (Adachi),2023-09-06,13:01～14:00,0.0325,0.0289,0.0306,
足立 (Adachi),2023-09-06,12:01～13:00,0.0341,0.0290,0.0308,
足立 (Adachi),2023-09-06,11:01～12:00,0.0336,0.0285,0.0311,
足立 (Adachi),2023-09-06,10:01～11:00,0.0339,0.0285,0.0311,
足立 (Adachi),2023-09-06,09:01～10:00,0.0336,0.0297,0.0317,
足立 (Adachi),2023-09-06,08:01～09:00,0.0339,0.0301,0.0318,
足立 (Adachi),2023-09-06,07:01～08:00,0.0337,0.0294,0.0320,
足立 (Adachi),2023-09-06,06:01～07:00,0.0337,0.0290,0.0316,
足立 (Adachi),2023-09-06,05:01～06:00,0.0337,0.0299,0.0316,
足立 (Adachi),2023-09-06,04:01～05:00,0.0339,0.0290,0.0315,
足立 (Adachi),2023-09-06,03:01～04:00,0.0334,0.0292,0.0315,
足立 (Adachi),2023-09-06,02:01～03:00,0.0345,0.0293,0.0314,
足立 (Adachi),2023-09-06,01:01～02:00,0.0337,0.0289,0.0312,
足立 (Adachi),2023-09-06,00:01～01:00,0.0333,0.0291,0.0314,
足立 (Adachi),2023-09-05,23:01～24:00,0.0332,0.0293,0.0315,
足立 (Adachi),2023-09-05,22:01～23:00,0.0336,0.0296,0.0315,
足立 (Adachi),2023-09-05,21:01～22:00,0.0332,0.0296,0.0317,
足立 (Adachi),2023-09-05,20:01～21:00,0.0335,0.0292,0.0313,
足立 (Adachi),2023-09-05,19:01～20:00,0.0341,0.0288,0.0312,
足立 (Adachi),2023-09-05,18:01～19:00,0.0332,0.0290,0.0310,
足立 (Adachi),2023-09-05,17:01～18:00,0.0336,0.0280,0.0309,
足立 (Adachi),2023-09-05,16:01～17:00,0.0333,0.0287,0.0307,
足立 (Adachi),2023-09-05,15:01～16:00,0.0329,0.0289,0.0307,
足立 (Adachi),2023-09-05,14:01～15:00,0.0333,0.0289,0.0308,
足立 (Adachi),2023-09-05,13:01～14:00,0.0329,0.0287,0.0309,
足立 (Adachi),2023-09-05,12:01～13:00,0.0329,0.0280,0.0304,
足立 (Adachi),2023-09-05,11:01～12:00,0.0320,0.0281,0.0302,
足立 (Adachi),2023-09-05,10:01～11:00,0.0326,0.0286,0.0307,
足立 (Adachi),2023-09-05,09:01～10:00,0.0337,0.0283,0.0305,
足立 (Adachi),2023-09-05,08:01～09:00,0.0329,0.0282,0.0304,
足立 (Adachi),2023-09-05,07:01～08:00,0.0324,0.0281,0.0302,
足立 (Adachi),2023-09-05,06:01～07:00,0.0325,0.0280,0.0303,
足立 (Adachi),2023-09-05,05:01～06:00,0.0322,0.0282,0.0301,
足立 (Adachi),2023-09-05,04:01～05:00,0.0357,0.0280,0.0303,
足立 (Adachi),2023-09-05,03:01～04:00,0.0329,0.0280,0.0305,
足立 (Adachi),2023-09-05,02:01～03:00,0.0329,0.0287,0.0306,
足立 (Adachi),2023-09-05,01:01～02:00,0.0326,0.0290,0.0306,
足立 (Adachi),2023-09-05,00:01～01:00,0.0328,0.0282,0.0308,
足立 (Adachi),2023-09-04,23:01～24:00,0.0326,0.0286,0.0310,
足立 (Adachi),2023-09-04,22:01～23:00,0.0332,0.0294,0.0313,
足立 (Adachi),2023-09-04,21:01～22:00,0.0332,0.0282,0.0311,
足立 (Adachi),2023-09-04,20:01～21:00,0.0333,0.0291,0.0312,
足立 (Adachi),2023-09-04,19:01～20:00,0.0326,0.0291,0.0309,
足立 (Adachi),2023-09-04,18:01～19:00,0.0330,0.0290,0.0312,
足立 (Adachi),2023-09-04,17:01～18:00,0.0326,0.0290,0.0307,
足立 (Adachi),2023-09-04,16:01～17:00,0.0336,0.0287,0.0312,
足立 (Adachi),2023-09-04,15:01～16:00,0.0335,0.0288,0.0312,
足立 (Adachi),2023-09-04,14:01～15:00,0.0330,0.0286,0.0306,
足立 (Adachi),2023-09-04,13:01～14:00,0.0338,0.0281,0.0309,
足立 (Adachi),2023-09-04,12:01～13:00,0.0332,0.0290,0.0309,
足立 (Adachi),2023-09-04,11:01～12:00,0.0339,0.0290,0.0311,
足立 (Adachi),2023-09-04,10:01～11:00,0.0345,0.0301,0.0322,
足立 (Adachi),2023-09-04,09:01～10:00,0.0338,0.0296,0.0315,
足立 (Adachi),2023-09-04,08:01～09:00,0.0354,0.0301,0.0324,
足立 (Adachi),2023-09-04,07:01～08:00,0.0360,0.0306,0.0331,
足立 (Adachi),2023-09-04,06:01～07:00,0.0352,0.0312,0.0330,
足立 (Adachi),2023-09-04,05:01～06:00,0.0361,0.0310,0.0337,
足立 (Adachi),2023-09-04,04:01～05:00,0.0351,0.0289,0.0325,
足立 (Adachi),2023-09-04,03:01～04:00,0.0333,0.0297,0.0318,
足立 (Adachi),2023-09-04,02:01～03:00,0.0346,0.0301,0.0322,
足立 (Adachi),2023-09-04,01:01～02:00,0.0366,0.0308,0.0331,
足立 (Adachi),2023-09-04,00:01～01:00,0.0352,0.0305,0.0328,
